{"data":{"norad_id":84932,"epoch":"2026-05-24T04:00:29.524032Z","epoch_age_seconds":147158,"freshness":"FRESH","line1":"1 84932U          26144.16700838  .00000149  00000+0  20724-2 0  9996","line2":"2 84932   2.0388 148.4041 6569639 239.0135 128.8814  3.00211898136664","mean_motion":3.00211898,"eccentricity":0.6569639,"inclination_deg":2.0388,"raan_deg":148.4041,"arg_perigee_deg":239.0135,"mean_anomaly_deg":128.8814,"bstar":0.0020724,"rev_number":13666,"period_min":479.66120250171,"perigee_km":584.75620336406,"apogee_km":27254.657558735,"semimajor_km":20297.843881049,"source":"CELESTRAK","updated_at":"2026-05-25T13:38:11.428028Z"}}